Location: North Evanston
(42.0634°N, 87.6976°W)
Time: 14:39:32
(UTC+00:00)

Injun/Solrad 3 - Pass Details

Date: 16 May 2026
Orbit: 867 x 989 km, 66.8° (Epoch: 7 June)

Event Time Altitude Azimuth Distance (km) Brightness Sun altitude
Rises 07:29:23 0° 318° (NW) 3,694 11.3 -24.4°
Reaches altitude 10° 07:32:26 10° 305° (NW) 2,749 10.4 -24.2°
Enters shadow 07:36:13 23° 270° (W) 1,976 9.3 -23.8°
Maximum altitude 07:37:24 24° 254° (WSW) 1,919 - -23.7°
Drops below altitude 10° 07:42:21 10° 203° (SSW) 2,733 - -23.3°
Sets 07:45:24 0° 190° (S) 3,668 - -23.0°
